Location: Unspecified
(0.0000°N, 0.0000°E)
Time: 08:23:01
(UTC+00:00)

Courier 1B Rocket - All Passes

Search period start: 23 November 2014 00:00
Search period end: 03 December 2014 00:00
Orbit: 920 x 1202 km, 28.2° (Epoch: 22 November)

Date Brightness Start Highest point End Pass type
(mag) Time Alt. Az. Time Alt. Az. Time Alt. Az.
23 Nov - 01:26:10 10° WSW 01:30:01 16° SSW 01:34:00 10° SSE visible
23 Nov - 07:13:59 10° S 07:17:45 14° SSE 07:21:32 10° SE daylight
23 Nov - 09:05:09 10° SW 09:12:25 40° SSE 09:19:30 10° E daylight
23 Nov - 10:58:38 10° WSW 11:06:21 66° NNW 11:13:40 10° NE daylight
23 Nov - 12:55:05 10° WNW 13:00:20 20° NNW 13:05:23 10° NNE daylight
23 Nov - 20:36:17 10° NNW 20:41:28 27° NNE 20:46:41 10° E visible
23 Nov - 22:28:40 10° WNW 22:34:55 78° SSW 22:41:28 10° SE night (unlit)
24 Nov - 00:23:48 10° WSW 00:28:40 22° SSW 00:33:46 10° SSE night (unlit)
24 Nov - 08:04:30 10° SSW 08:11:01 29° SSE 08:17:30 10° E daylight
24 Nov - 09:57:14 10° WSW 10:05:07 86° SSE 10:12:42 10° ENE daylight
24 Nov - 11:52:29 10° W 11:59:01 30° NNW 12:05:15 10° NNE daylight
24 Nov - 19:36:15 10° NNW 19:40:21 18° NNE 19:44:27 10° ENE visible
24 Nov - 21:27:49 10° NW 21:33:59 68° NNE 21:40:20 10° ESE night (unlit)
24 Nov - 23:21:57 10° W 23:27:29 32° SSW 23:33:18 10° SE night (unlit)
25 Nov - 07:04:08 10° SSW 07:09:31 20° SSE 07:14:58 10° ESE daylight
25 Nov - 08:56:06 10° SW 09:03:50 60° SSE 09:11:25 10° ENE daylight
25 Nov - 10:50:23 10° W 10:57:44 44° NNW 11:04:47 10° NE daylight
25 Nov - 12:48:25 10° NW 12:52:03 14° NNW 12:55:37 10° N daylight
25 Nov - 18:36:48 10° N 18:39:06 12° NNE 18:41:22 10° NE visible
25 Nov - 20:27:11 10° NW 20:33:04 43° NNE 20:38:58 10° E visible
25 Nov - 22:20:29 10° WNW 22:26:27 48° SSW 22:32:40 10° SE night (unlit)
26 Nov - 00:17:12 10° SW 00:20:29 14° SSW 00:23:51 10° S night (unlit)
26 Nov - 06:04:15 10° S 06:07:56 14° SSE 06:11:40 10° SE daylight
26 Nov - 07:55:15 10° SW 08:02:30 42° SSE 08:09:45 10° E daylight
26 Nov - 09:48:41 10° WSW 09:56:27 65° NNW 10:04:01 10° NE daylight
26 Nov - 11:45:06 10° WNW 11:50:35 21° NNW 11:55:54 10° NNE daylight
26 Nov - 19:26:45 10° NNW 19:32:04 28° NNE 19:37:18 10° E visible
26 Nov - 21:19:18 10° WNW 21:25:31 75° SSW 21:31:50 10° SE visible
26 Nov - 23:14:39 10° WSW 23:19:11 20° SSW 23:23:52 10° SSE night (unlit)
27 Nov - 06:54:41 10° SSW 07:01:07 29° SSE 07:07:40 10° E daylight
27 Nov - 08:47:19 10° WSW 08:55:10 88° SSE 09:02:58 10° ENE daylight
27 Nov - 10:42:32 10° W 10:49:10 30° NNW 10:55:39 10° NNE daylight
27 Nov - 18:26:33 10° NNW 18:30:56 19° NNE 18:35:13 10° ENE visible
27 Nov - 20:18:21 10° NW 20:24:37 70° NNE 20:30:50 10° ESE visible
27 Nov - 22:12:41 10° W 22:18:04 30° SSW 22:23:34 10° SSE night (unlit)
28 Nov - 05:54:26 10° SSW 05:59:41 20° SSE 06:05:03 10° ESE daylight
28 Nov - 07:46:16 10° SW 07:53:53 62° SSE 08:01:36 10° ENE daylight
28 Nov - 09:40:28 10° W 09:47:49 44° NNW 09:55:05 10° NE daylight
28 Nov - 11:38:22 10° NW 11:42:18 15° NNW 11:46:09 10° N daylight
28 Nov - 17:26:46 10° N 17:29:38 13° NNE 17:32:27 10° NE daylight
28 Nov - 19:17:37 10° NW 19:23:40 45° NNE 19:29:34 10° E visible
28 Nov - 21:11:07 10° WNW 21:17:04 46° SSW 21:23:03 10° SE visible
28 Nov - 23:08:14 10° SW 23:11:00 13° SSW 23:13:50 10° S night (unlit)
29 Nov - 04:54:44 10° S 04:58:10 14° SSE 05:01:39 10° SE visible
29 Nov - 06:45:31 10° SW 06:52:35 42° SSE 06:59:52 10° E daylight
29 Nov - 08:38:50 10° WSW 08:46:30 64° NNW 08:54:14 10° NE daylight
29 Nov - 10:35:10 10° WNW 10:40:45 21° NNW 10:46:15 10° NNE daylight
29 Nov - 18:17:03 10° NNW 18:22:38 30° NNE 18:28:01 10° E visible
29 Nov - 20:09:49 10° WNW 20:16:08 73° SSW 20:22:21 10° SE visible
29 Nov - 22:05:26 10° WSW 22:09:45 19° SSW 22:14:08 10° SSE night (unlit)
30 Nov - 05:45:02 10° SSW 05:51:16 29° SSE 05:57:44 10° E daylight
30 Nov - 07:37:33 10° WSW 07:45:13 90° SSE 07:53:06 10° ENE daylight
30 Nov - 09:32:40 10° W 09:39:17 30° NNW 09:45:53 10° NNE daylight
30 Nov - 11:33:52 10° NNW 11:34:11 10° NNW 11:34:31 10° NNW daylight
30 Nov - 17:16:40 10° NNW 17:21:28 20° NNE 17:26:04 10° ENE daylight
30 Nov - 19:08:46 10° NW 19:15:13 73° NNE 19:21:27 10° ESE visible
30 Nov - 21:03:19 10° W 21:08:40 29° SSW 21:13:59 10° SSE visible
01 Dec - 04:44:55 10° SSW 04:49:54 20° SSE 04:55:04 10° ESE visible
01 Dec - 06:36:35 10° SW 06:43:58 63° SSE 06:51:40 10° ENE daylight
01 Dec - 08:30:41 10° W 08:37:54 43° NNW 08:45:13 10° NE daylight
01 Dec - 10:28:28 10° NW 10:32:29 15° NNW 10:36:28 10° N daylight
01 Dec - 16:16:35 10° N 16:20:07 14° NNE 16:23:32 10° NE daylight
01 Dec - 18:07:53 10° NW 18:14:15 47° NNE 18:20:17 10° ESE visible
01 Dec - 20:01:37 10° W 20:07:40 45° SSW 20:13:36 10° SE visible
01 Dec - 21:59:09 10° SW 22:01:34 12° SSW 22:04:00 10° S visible
02 Dec - 03:45:26 10° S 03:48:27 13° SSE 03:51:33 10° SE visible
02 Dec - 05:35:55 10° SW 05:42:44 42° SSE 05:49:54 10° E daylight
02 Dec - 07:29:08 10° WSW 07:36:35 62° NNW 07:44:18 10° NE daylight
02 Dec - 09:25:22 10° WNW 09:30:53 21° NNW 09:36:25 10° NNE daylight
02 Dec - 15:17:39 10° N 15:18:35 10° NNE 15:19:32 10° NNE daylight
02 Dec - 17:07:11 10° NW 17:13:09 32° NNE 17:18:48 10° E daylight
02 Dec - 19:00:12 10° WNW 19:06:44 71° SSW 19:12:59 10° SE visible
02 Dec - 20:56:04 10° WSW 21:00:20 19° SSW 21:04:34 10° SSE visible
